When you browse on this site, cookies collect data to enhance your experience and personalize the content and advertising you see.
Visit our Privacy Policy to learn more. By continuing to use the site, you agree to this use of cookies and data.
  • en France
  • Liste des pays
  • À 7 jours
  • Température de l'eau
  • Carte satellitaire
  • Carte météo
  • Widgets météo
  • user-avatar
    Se connecter

    Météo par heure à Khulna

    Ce jour, 17 Novembre, Samedi

    Heure Température Précipitation Vent Pression Humidité
    00:00 +24°C° 0 mm 1 m/s 758 mmHg 59%
    01:00 +24°C° 0 mm 1 m/s 758 mmHg 59%
    02:00 +24°C° 0 mm 1 m/s 758 mmHg 60%
    03:00 +23°C° 0 mm 1 m/s 757 mmHg 60%
    04:00 +23°C° 0 mm 1 m/s 758 mmHg 60%
    05:00 +23°C° 0 mm 1 m/s 758 mmHg 61%
    06:00 +23°C° 0 mm 2 m/s 758 mmHg 61%
    07:00 +25°C° 0 mm 2 m/s 758 mmHg 57%
    08:00 +27°C° 0 mm 2 m/s 758 mmHg 53%
    09:00 +29°C° 0 mm 2 m/s 759 mmHg 49%
    10:00 +30°C° 0 mm 3 m/s 758 mmHg 45%
    11:00 +33°C° 0 mm 3 m/s 758 mmHg 40%
    12:00 +34°C° 0 mm 3 m/s 758 mmHg 36%
    13:00 +34°C° 0 mm 3 m/s 757 mmHg 36%
    14:00 +34°C° 0 mm 3 m/s 757 mmHg 36%
    15:00 +34°C° 0 mm 3 m/s 756 mmHg 36%
    16:00 +31°C° 0 mm 2 m/s 756 mmHg 40%
    17:00 +30°C° 0 mm 2 m/s 756 mmHg 44%
    18:00 +28°C° 0 mm 1 m/s 757 mmHg 48%
    19:00 +27°C° 0 mm 1 m/s 757 mmHg 49%
    20:00 +26°C° 0 mm 1 m/s 757 mmHg 51%
    21:00 +26°C° 0 mm 1 m/s 758 mmHg 53%
    22:00 +25°C° 0 mm 1 m/s 758 mmHg 54%
    23:00 +25°C° 0 mm 1 m/s 758 mmHg 55%

    Demain, 18 Novembre, Dimanche

    Heure Température Précipitation Vent Pression Humidité
    00:00 +25°C° 0 mm 1 m/s 758 mmHg 56%
    01:00 +24°C° 0 mm 1 m/s 758 mmHg 57%
    02:00 +24°C° 0 mm 1 m/s 758 mmHg 58%
    03:00 +24°C° 0 mm 1 m/s 758 mmHg 59%
    04:00 +23°C° 0 mm 1 m/s 758 mmHg 61%
    05:00 +23°C° 0 mm 1 m/s 758 mmHg 63%
    06:00 +23°C° 0 mm 1 m/s 758 mmHg 65%
    07:00 +25°C° 0 mm 1 m/s 759 mmHg 61%
    08:00 +26°C° 0 mm 1 m/s 760 mmHg 58%
    09:00 +28°C° 0 mm 2 m/s 760 mmHg 55%
    10:00 +30°C° 0 mm 1 m/s 760 mmHg 49%
    11:00 +32°C° 0 mm 1 m/s 760 mmHg 44%
    12:00 +31°C° 0 mm 0 m/s 760 mmHg 39%
    13:00 +33°C° 0 mm 1 m/s 759 mmHg 38%
    14:00 +33°C° 0 mm 1 m/s 758 mmHg 37%
    15:00 +33°C° 0 mm 1 m/s 757 mmHg 35%
    16:00 +31°C° 0 mm 1 m/s 757 mmHg 39%
    17:00 +30°C° 0 mm 1 m/s 758 mmHg 42%
    18:00 +28°C° 0 mm 1 m/s 758 mmHg 46%
    19:00 +27°C° 0 mm 1 m/s 758 mmHg 48%
    20:00 +27°C° 0 mm 1 m/s 759 mmHg 51%
    21:00 +26°C° 0 mm 1 m/s 759 mmHg 53%
    22:00 +25°C° 0 mm 1 m/s 759 mmHg 55%
    23:00 +25°C° 0 mm 1 m/s 759 mmHg 57%

    Après-demain, 19 Novembre, Lundi

    Heure Température Précipitation Vent Pression Humidité
    00:00 +24°C° 0 mm 1 m/s 759 mmHg 59%
    01:00 +24°C° 0 mm 1 m/s 759 mmHg 60%
    02:00 +23°C° 0 mm 1 m/s 759 mmHg 61%
    03:00 +23°C° 0 mm 1 m/s 759 mmHg 62%
    04:00 +23°C° 0 mm 1 m/s 759 mmHg 64%
    05:00 +23°C° 0 mm 1 m/s 759 mmHg 65%
    06:00 +22°C° 0 mm 1 m/s 759 mmHg 67%
    07:00 +24°C° 0 mm 2 m/s 760 mmHg 62%
    08:00 +26°C° 0 mm 2 m/s 761 mmHg 58%
    09:00 +27°C° 0 mm 2 m/s 762 mmHg 54%
    10:00 +29°C° 0 mm 2 m/s 761 mmHg 49%
    11:00 +31°C° 0 mm 1 m/s 761 mmHg 44%
    12:00 +33°C° 0 mm 1 m/s 761 mmHg 39%
    13:00 +33°C° 0 mm 1 m/s 760 mmHg 37%
    14:00 +33°C° 0 mm 1 m/s 759 mmHg 36%
    15:00 +33°C° 0 mm 1 m/s 759 mmHg 34%
    16:00 +31°C° 0 mm 1 m/s 759 mmHg 38%
    17:00 +29°C° 0 mm 1 m/s 759 mmHg 42%
    18:00 +28°C° 0 mm 1 m/s 759 mmHg 45%
    19:00 +27°C° 0 mm 1 m/s 759 mmHg 48%
    20:00 +26°C° 0 mm 1 m/s 760 mmHg 50%
    21:00 +25°C° 0 mm 1 m/s 760 mmHg 52%
    22:00 +25°C° 0 mm 1 m/s 760 mmHg 55%
    23:00 +24°C° 0 mm 1 m/s 760 mmHg 58%

    20 Novembre, Mardi

    Heure Température Précipitation Vent Pression Humidité
    00:00 +24°C° 0 mm 1 m/s 760 mmHg 60%
    01:00 +23°C° 0 mm 1 m/s 759 mmHg 61%
    02:00 +23°C° 0 mm 1 m/s 759 mmHg 62%
    03:00 +23°C° 0 mm 1 m/s 759 mmHg 63%
    04:00 +23°C° 0 mm 1 m/s 759 mmHg 64%
    05:00 +22°C° 0 mm 1 m/s 759 mmHg 64%
    06:00 +22°C° 0 mm 1 m/s 760 mmHg 65%
    07:00 +24°C° 0 mm 1 m/s 760 mmHg 60%
    08:00 +25°C° 0 mm 2 m/s 761 mmHg 55%
    09:00 +27°C° 0 mm 2 m/s 762 mmHg 50%
    10:00 +29°C° 0 mm 1 m/s 761 mmHg 46%
    11:00 +30°C° 0 mm 1 m/s 761 mmHg 42%
    12:00 +30°C° 0 mm 0 m/s 760 mmHg 38%
    13:00 +32°C° 0 mm 1 m/s 760 mmHg 37%
    14:00 +32°C° 0 mm 1 m/s 759 mmHg 36%
    15:00 +32°C° 0 mm 2 m/s 758 mmHg 35%
    16:00 +31°C° 0 mm 1 m/s 758 mmHg 38%
    17:00 +29°C° 0 mm 1 m/s 758 mmHg 42%
    18:00 +27°C° 0 mm 1 m/s 758 mmHg 45%
    19:00 +27°C° 0 mm 1 m/s 759 mmHg 47%
    20:00 +26°C° 0 mm 1 m/s 759 mmHg 48%
    21:00 +25°C° 0 mm 1 m/s 760 mmHg 50%
    22:00 +25°C° 0 mm 1 m/s 760 mmHg 51%
    23:00 +24°C° 0 mm 1 m/s 760 mmHg 53%

    21 Novembre, Mercredi

    Heure Température Précipitation Vent Pression Humidité
    00:00 +24°C° 0 mm 1 m/s 760 mmHg 55%
    01:00 +23°C° 0 mm 1 m/s 759 mmHg 56%
    02:00 +23°C° 0 mm 1 m/s 759 mmHg 57%
    03:00 +21°C° 0 mm 2 m/s 759 mmHg 58%
    04:00 +21°C° 0 mm 2 m/s 759 mmHg 59%
    05:00 +21°C° 0 mm 2 m/s 760 mmHg 61%
    06:00 +20°C° 0 mm 2 m/s 760 mmHg 62%
    07:00 +23°C° 0 mm 2 m/s 760 mmHg 58%
    08:00 +25°C° 0 mm 2 m/s 761 mmHg 54%
    09:00 +27°C° 0 mm 2 m/s 762 mmHg 49%
    10:00 +28°C° 0 mm 2 m/s 761 mmHg 43%
    11:00 +30°C° 0 mm 2 m/s 761 mmHg 36%
    12:00 +31°C° 0 mm 2 m/s 760 mmHg 29%
    13:00 +33°C° 0 mm 3 m/s 759 mmHg 28%
    14:00 +33°C° 0 mm 3 m/s 759 mmHg 27%
    15:00 +33°C° 0 mm 3 m/s 758 mmHg 27%
    16:00 +30°C° 0 mm 2 m/s 758 mmHg 30%
    17:00 +28°C° 0 mm 2 m/s 758 mmHg 33%
    18:00 +26°C° 0 mm 2 m/s 758 mmHg 37%
    19:00 +25°C° 0 mm 2 m/s 759 mmHg 38%
    20:00 +24°C° 0 mm 1 m/s 759 mmHg 39%
    21:00 +24°C° 0 mm 1 m/s 760 mmHg 41%
    22:00 +23°C° 0 mm 1 m/s 760 mmHg 43%
    23:00 +22°C° 0 mm 1 m/s 760 mmHg 45%

    22 Novembre, Jeudi

    Heure Température Précipitation Vent Pression Humidité
    00:00 +22°C° 0 mm 1 m/s 760 mmHg 48%
    01:00 +21°C° 0 mm 1 m/s 759 mmHg 50%
    02:00 +21°C° 0 mm 1 m/s 759 mmHg 53%
    03:00 +20°C° 0 mm 1 m/s 759 mmHg 56%
    04:00 +20°C° 0 mm 1 m/s 759 mmHg 58%
    05:00 +20°C° 0 mm 1 m/s 759 mmHg 60%
    06:00 +20°C° 0 mm 1 m/s 760 mmHg 62%
    07:00 +22°C° 0 mm 1 m/s 760 mmHg 58%
    08:00 +24°C° 0 mm 1 m/s 761 mmHg 53%
    09:00 +26°C° 0 mm 1 m/s 761 mmHg 49%
    10:00 +27°C° 0 mm 2 m/s 761 mmHg 44%
    11:00 +29°C° 0 mm 3 m/s 761 mmHg 38%
    12:00 +30°C° 0 mm 4 m/s 760 mmHg 33%
    13:00 +30°C° 0 mm 4 m/s 759 mmHg 33%
    14:00 +30°C° 0 mm 4 m/s 759 mmHg 33%
    15:00 +30°C° 0 mm 4 m/s 758 mmHg 33%
    16:00 +28°C° 0 mm 3 m/s 758 mmHg 37%
    17:00 +27°C° 0 mm 2 m/s 758 mmHg 41%
    18:00 +25°C° 0 mm 2 m/s 758 mmHg 46%
    19:00 +24°C° 0 mm 2 m/s 759 mmHg 47%
    20:00 +23°C° 0 mm 2 m/s 759 mmHg 49%
    21:00 +23°C° 0 mm 2 m/s 760 mmHg 51%
    22:00 +21°C° 0 mm 2 m/s 759 mmHg 53%
    23:00 +21°C° 0 mm 2 m/s 759 mmHg 55%
    Voir plus